MET'MAP v2.0
soon released !

Expected late october,
this new version will be
more efficient, smarter,
and hosted on a brand new
server x3 powerfull...
...and still free !


Not compatible ?
Try the mobile version !

LOG IN : | Subscribe | Disclaimer | Who is Orbifly ? |
ICAO code :

TAF - ETIC Grafenwohr Army Air Field - 27 Feb 2020 06:50 UTC
Data Sources :     NOAA   


- Airport Elevation : 1363 ft
- No reported NOTAMs.


ETIC - Grafenwohr Army Air Field

Latest METAR recorded : 2015/08/11 07:58 ETIC 110758Z AUTO M 9999 CLR 24/17 A3000 RMK AO2 SLP140 T02430166 $
TAF TAF ETIC
Valid from the 27 at 02:00 until the 28 at 08:00 UTC


270210Z 2702/2808 26008KT 9000 -RASN BKN015 OVC025 620156 QNH2968INS
TEMPO 2703/2706 6000 -SHSN
BECMG 2706/2707 24008KT 9000 -SHRA BKN020 OVC035 610206 QNH2972INS
BECMG 2716/2717 15008KT 8000 -SHSN BKN015 OVC025 610156 QNH2939INS
TEMPO 2718/2722 0800 SHSN
BECMG 2805/2806 28012G25KT 6000 -SHSN BKN010 OVC025 QNH2978INS TX02/2712Z TNM01/2706Z

Source NOAA


MET'MAP, your aeronautical weather chart ! - Copyright ORBIFLY December 2007

Programming & Development : Alexandra Zaïnal
Co-Developer : Marc-Olivier Méhu
Technical & hardware support : Manuel Goepfert
Concept & Financing : Baudouin d'Aumeries